Theta_e
328 330 331 332 333 333 332 332 332 331 331 330 329 328 328 328 328 327 326 325 325 325 325 326 327 328 329 331 330 327 328 329 328 329 329 330 330 330 330 330 330 331
327 329 330 330 331 332 332 332 332 332 331 331 330 331 330 328 327 327 326 326 325 325 325 326 328 329 329 331 331 329 329 330 330 329 330 330 329 329 330 329 330 330
326 327 329 329 330 330 331 331 331 332 332 332 331 331 330 329 327 327 327 326 326 326 325 326 328 329 330 331 331 331 330 330 330 330 330 330 328 329 330 330 331 330
325 326 328 329 329 329 329 330 330 331 331 332 332 331 331 330 328 326 326 325 325 326 326 327 327 328 329 330 331 331 330 328 328 329 330 329 328 329 329 330 331 331
325 326 328 328 328 328 328 329 329 330 330 331 332 332 332 331 329 327 326 325 326 327 327 328 328 328 329 329 330 330 329 328 327 327 329 330 329 328 329 330 331 330
322 324 326 328 328 328 329 329 329 328 329 330 331 331 331 331 330 328 327 326 327 329 329 328 329 330 329 329 329 329 329 328 327 327 328 330 330 329 328 329 330 329
320 321 323 326 328 328 328 329 329 328 329 330 330 330 330 331 331 330 329 328 328 330 330 329 329 330 330 329 328 328 328 328 328 328 328 329 330 329 327 328 328 329
320 321 321 323 325 327 328 329 329 329 329 329 330 329 330 331 331 331 330 329 330 330 330 330 330 330 330 330 329 329 328 328 328 329 329 330 330 329 328 328 327 328
320 321 321 321 322 324 326 328 329 329 329 329 329 329 330 330 331 331 331 331 331 330 330 330 330 330 330 330 330 329 328 327 326 327 329 330 330 329 328 328 327 328
320 320 321 321 322 322 323 325 327 328 328 329 329 329 330 330 330 330 330 331 330 330 330 330 330 331 331 331 330 329 328 326 325 326 328 330 330 329 328 326 327 327
319 319 320 320 321 322 322 324 325 326 327 327 328 328 329 329 330 330 330 330 330 330 330 330 330 330 331 331 331 330 328 326 325 327 329 331 330 328 326 326 327 327
318 319 319 319 320 320 321 322 324 325 326 327 327 328 328 329 329 330 330 330 330 330 330 330 330 330 331 331 331 330 328 327 327 329 330 331 330 328 326 327 327 327
317 318 318 319 319 320 321 321 323 324 325 326 326 327 328 328 329 329 329 329 330 330 330 330 330 330 331 330 330 330 328 328 329 330 330 330 329 327 327 328 327 327
317 317 317 318 319 320 320 321 322 324 325 325 326 326 326 327 328 328 329 329 329 329 330 330 330 330 330 330 330 330 329 329 329 330 330 329 328 328 328 328 327 328
317 317 317 317 318 319 320 320 322 323 325 325 325 325 325 326 327 328 328 329 329 329 329 329 329 329 329 329 329 329 330 330 329 329 329 328 329 328 327 326 327 328
317 317 317 317 318 319 319 320 321 322 323 324 324 325 325 325 326 327 327 328 328 328 328 329 329 329 329 329 328 328 329 329 328 328 328 328 328 327 326 326 326 327
316 317 317 317 317 318 319 319 320 320 321 322 323 323 324 324 325 326 326 326 327 328 328 328 329 329 329 328 328 328 329 329 328 327 328 328 327 327 326 325 325 325
315 316 316 315 315 316 317 318 318 319 319 320 321 321 322 322 323 324 325 325 326 327 327 328 328 328 329 328 328 328 329 329 328 328 328 327 326 326 326 325 325 325
314 315 315 315 315 315 316 316 316 317 317 317 318 319 319 320 322 323 324 324 325 326 326 327 327 327 329 329 328 328 328 329 328 328 327 327 327 326 325 324 324 324
313 313 313 314 315 315 315 315 315 316 316 315 316 317 318 320 321 322 323 324 325 325 325 326 326 327 327 328 328 328 328 328 328 327 327 327 326 326 325 324 324 323
311 312 312 313 314 314 315 314 314 314 314 314 314 315 316 317 319 320 321 322 323 323 324 325 325 326 326 326 328 328 327 327 327 327 327 327 326 325 325 325 325 324
309 310 311 312 312 313 314 314 313 313 313 312 312 313 314 315 317 318 319 319 319 320 321 322 324 324 325 327 328 327 327 327 327 326 327 326 325 325 323 323 324 324
307 308 309 309 310 312 312 312 312 312 311 311 311 312 313 314 315 317 317 317 317 317 318 320 322 323 325 327 328 327 328 328 327 326 325 325 324 323 322 322 323 322
306 306 307 307 308 309 310 310 311 311 311 310 310 311 312 312 313 314 315 316 315 315 315 316 318 321 324 327 327 327 327 327 325 325 324 323 323 322 321 322 322 320
306 305 305 305 306 306 308 309 309 310 310 310 310 310 310 311 312 313 314 315 314 314 315 316 317 320 323 325 326 326 325 324 322 322 323 322 322 322 322 322 321 320
305 305 305 305 304 305 306 306 307 308 309 310 310 310 310 311 312 313 313 314 314 314 315 316 318 320 321 322 323 323 322 321 321 321 321 322 322 322 322 321 320 319
Wind_Speed
7 7 9 10 11 12 12 12 13 13 13 12 12 12 13 14 15 17 18 17 18 19 20 21 21 20 20 20 23 24 25 25 24 23 22 22 22 21 21 21 20 20
8 7 8 9 10 12 12 13 13 14 14 13 12 13 14 14 15 17 17 18 19 19 20 21 21 21 21 22 23 24 25 24 23 23 21 21 23 22 23 22 22 23
9 7 7 8 10 11 12 14 15 16 15 14 14 15 14 15 16 17 17 17 18 18 19 19 19 21 21 23 23 23 24 23 23 23 22 23 24 24 23 22 22 24
10 7 6 8 9 10 11 13 14 16 17 16 16 15 14 15 17 17 17 16 16 16 16 16 18 20 21 22 23 23 24 24 24 23 24 25 25 23 23 22 21 23
11 9 7 7 8 10 10 11 13 16 17 16 16 14 13 14 16 17 16 16 16 16 15 16 18 20 21 22 23 24 24 24 24 23 24 25 25 24 23 22 22 23
13 12 10 9 9 10 10 10 13 16 17 16 17 15 13 13 14 15 15 16 17 17 16 16 18 20 21 22 23 24 25 25 25 24 25 25 25 25 24 23 23 24
15 14 12 11 11 12 12 12 13 16 17 17 17 16 15 14 14 14 16 17 19 19 18 17 19 21 22 23 24 24 25 26 26 25 25 25 25 26 25 25 24 24
16 15 14 12 12 13 14 14 14 15 15 16 17 17 16 16 15 15 16 17 19 19 18 17 19 22 24 24 24 25 26 26 26 25 25 25 27 27 26 25 24 23
14 14 15 15 14 13 13 14 15 16 15 16 17 17 17 18 17 17 17 17 18 18 16 16 17 21 24 25 25 25 26 26 27 26 25 26 27 26 25 25 24 24
13 13 14 15 15 15 14 13 14 16 18 18 18 18 18 19 19 19 18 19 20 19 17 17 17 19 22 24 26 27 27 27 27 26 26 26 26 26 25 25 25 25
12 12 13 13 14 15 14 13 12 14 17 18 19 20 20 18 18 19 19 20 21 20 18 19 19 20 21 22 25 26 27 27 26 26 26 25 25 25 26 25 24 24
14 13 12 12 12 13 14 13 11 11 13 15 16 17 18 18 18 18 20 21 21 21 21 21 21 22 22 22 23 24 26 26 26 25 23 22 24 25 25 25 24 24
17 15 13 11 12 12 12 12 11 11 12 14 14 14 15 16 18 19 21 22 21 21 22 22 21 22 23 23 24 24 25 26 26 24 22 22 24 24 24 24 24 24
19 18 15 12 11 11 10 10 10 10 11 13 14 14 14 15 16 18 20 21 21 20 21 22 22 22 23 23 23 23 24 25 24 23 23 24 23 23 23 23 23 24
21 19 17 15 12 11 10 9 7 8 9 11 12 14 14 15 16 17 19 21 21 21 21 22 23 24 24 24 24 24 24 25 24 23 23 23 23 23 23 22 23 24
23 21 19 16 14 12 11 9 8 8 10 11 12 13 14 14 15 17 19 21 23 23 23 23 24 25 26 26 26 25 24 24 25 24 23 23 23 23 23 22 23 24
24 23 22 20 17 15 13 12 11 10 10 12 14 13 14 15 16 17 19 22 24 24 25 25 24 26 28 28 27 26 24 24 25 25 23 23 23 22 22 22 23 24
24 23 23 23 22 20 18 17 16 15 13 12 13 14 14 14 16 17 19 21 23 24 26 27 25 25 27 29 29 27 26 24 24 24 24 23 22 22 21 21 22 23
24 23 22 23 23 23 22 21 21 20 18 14 12 13 14 14 14 15 17 19 20 22 24 26 26 25 26 28 28 28 26 24 23 24 24 23 22 22 21 21 21 22
23 23 23 23 23 23 24 24 25 24 22 18 13 11 11 12 12 12 14 16 17 19 22 25 26 26 25 25 26 26 26 25 24 23 22 23 23 21 21 21 21 22
22 23 23 23 22 22 23 25 27 27 26 24 21 17 14 13 12 11 12 14 16 19 22 24 25 25 25 26 26 26 25 24 24 23 24 24 23 22 22 22 21 20
20 21 23 23 22 22 23 25 27 28 28 26 24 22 20 17 14 12 12 13 15 18 21 23 24 23 23 25 27 26 24 24 25 26 26 25 24 24 24 22 21 20
19 19 21 22 23 24 23 24 25 26 26 24 23 21 20 19 16 14 12 13 14 16 18 20 23 23 22 27 29 27 26 25 25 26 25 25 26 25 23 22 21 19
19 18 18 18 20 22 23 22 23 23 22 21 19 19 18 16 15 13 12 12 11 11 12 14 18 22 24 28 30 29 28 26 25 25 24 24 26 25 23 22 21 19
18 17 17 16 18 21 22 22 21 20 19 17 15 15 15 14 13 11 9 8 8 7 5 4 8 14 19 23 25 25 23 23 24 24 23 22 24 24 23 23 22 20
17 17 17 17 17 19 21 22 22 20 19 16 14 14 14 15 15 14 13 12 11 10 9 6 2 5 10 15 18 18 17 18 21 20 20 21 23 22 24 25 25 22
Wind_Direction
297 276 264 260 263 266 267 268 265 260 258 257 252 249 248 242 237 240 244 244 244 241 239 239 238 239 243 235 223 224 234 239 237 236 236 236 236 235 236 234 225 218
310 292 277 262 256 261 261 259 256 253 253 254 250 241 238 235 233 237 239 239 241 241 238 239 238 238 238 234 226 223 230 235 235 235 236 235 234 232 235 236 231 224
319 308 297 274 260 257 258 259 256 251 249 248 245 240 236 234 232 233 235 236 237 238 237 235 236 236 235 235 232 227 229 232 232 235 237 234 230 229 232 233 231 229
323 316 308 294 278 266 259 257 256 252 246 242 243 241 236 235 234 231 231 233 234 234 235 233 234 235 233 232 232 230 231 232 231 233 236 234 231 229 231 228 226 229
320 310 299 294 288 284 277 269 263 258 249 244 246 242 232 232 235 234 232 233 235 235 234 233 234 236 235 231 230 230 232 231 229 231 234 235 231 230 230 226 226 230
322 312 298 287 283 285 284 279 274 264 252 250 252 246 237 235 236 237 236 237 240 239 236 236 237 237 236 233 230 229 229 229 228 230 233 233 231 233 233 230 231 231
326 319 307 292 283 280 275 272 275 268 257 254 256 251 245 241 238 238 238 238 241 242 239 239 238 238 238 235 232 229 227 227 227 228 231 232 233 235 235 233 232 230
328 321 313 302 292 285 277 270 268 268 265 262 260 254 249 244 236 235 238 239 241 242 242 240 238 238 238 235 231 228 226 227 227 227 228 229 233 235 234 231 229 226
330 323 316 310 303 294 285 276 268 266 265 264 262 256 250 247 242 237 237 239 243 244 241 240 237 236 237 234 229 225 225 227 228 229 228 228 230 231 229 228 226 223
332 325 320 316 311 302 293 285 276 269 265 263 262 261 256 252 252 251 244 240 243 245 242 239 239 236 235 234 228 224 223 225 228 230 230 227 226 226 226 227 225 223
338 330 323 319 316 310 301 292 283 275 271 265 261 261 261 259 258 258 254 247 244 245 242 238 237 235 232 232 229 225 223 223 226 228 227 224 221 223 226 225 224 223
348 340 331 322 315 311 306 298 288 278 275 272 267 264 263 260 257 253 254 252 246 243 242 238 234 231 228 228 227 225 223 223 225 227 224 219 219 221 222 222 223 223
355 349 340 329 318 315 312 309 304 291 279 274 272 270 266 262 259 253 252 253 249 245 244 240 235 229 227 227 225 225 225 223 224 223 217 215 219 221 221 221 221 219
2 356 350 340 331 326 321 317 315 304 292 283 277 275 272 266 263 258 255 256 253 248 244 241 235 230 228 228 226 225 224 221 220 218 215 215 218 219 219 218 217 215
10 6 1 353 346 342 335 327 312 290 285 286 282 279 277 272 269 265 260 257 255 251 247 240 234 230 230 228 224 222 221 218 215 213 215 217 217 217 217 215 213 212
15 14 11 7 2 356 345 337 319 288 274 273 273 271 270 268 269 267 262 258 255 252 250 244 234 229 229 227 224 221 217 214 211 210 212 215 215 215 213 212 212 211
13 15 15 14 13 7 356 345 334 315 291 277 273 270 266 262 261 261 262 260 255 251 250 248 239 230 227 226 224 219 212 209 208 207 208 211 213 213 211 212 215 214
12 13 14 15 15 15 11 2 350 338 321 298 285 279 275 267 257 252 255 259 257 253 249 247 244 237 229 228 227 218 207 206 208 206 207 210 210 208 209 212 214 214
13 11 10 12 12 14 16 13 6 357 346 328 306 291 287 284 270 254 248 251 254 254 251 249 249 244 235 233 230 220 207 203 205 206 208 209 206 203 205 205 204 206
16 13 8 7 7 9 14 15 13 10 5 359 348 325 308 303 295 276 259 254 255 258 257 254 253 250 244 238 230 219 210 202 201 204 206 205 203 201 200 197 195 196
17 16 11 8 7 9 12 13 13 14 14 13 9 360 348 333 320 309 296 284 276 272 268 264 262 260 252 238 224 217 213 202 194 199 202 199 198 196 191 187 186 188
13 15 15 15 14 12 12 12 13 14 15 17 14 7 360 351 340 337 330 318 304 291 281 273 269 265 248 226 213 209 208 199 193 195 195 189 187 187 183 179 180 184
11 13 17 20 20 19 16 14 15 15 15 18 18 12 7 359 352 350 348 343 330 309 292 279 273 265 239 213 202 199 200 199 196 194 188 180 176 176 177 177 179 183
14 14 16 18 19 22 21 18 17 16 18 23 25 21 16 7 358 352 348 348 346 327 303 280 265 253 229 205 194 194 196 199 198 192 185 178 173 172 175 179 181 184
17 16 17 18 21 24 24 21 17 16 18 25 35 41 36 28 20 13 8 12 17 11 350 286 241 226 209 193 188 192 197 203 203 191 178 174 175 176 178 180 182 186
19 21 22 23 24 26 27 26 22 18 16 16 27 46 53 48 42 37 37 44 53 64 68 65 92 172 171 165 170 183 195 203 202 187 173 174 178 182 187 186 186 187